Theta_e
338 336 325 318 307 304 300 305 309 306 304 307 308 306 304 304 304 298 317 332 333 332 342 350 354 353 352 351 351 350 349 347 344 343 343 342 341 339 339 338 337 336 336 336 336 335 335 336 339
330 326 315 315 304 299 302 309 307 306 308 308 309 305 305 306 315 315 320 335 333 335 341 346 354 353 353 352 352 351 350 347 345 345 344 345 344 341 340 340 340 339 339 338 337 337 337 336 336
323 320 309 310 304 299 302 310 311 312 309 308 306 310 310 309 318 317 319 337 333 334 340 344 354 353 353 353 352 351 349 348 346 347 345 345 344 343 342 341 341 341 341 339 339 339 338 337 337
318 322 317 304 301 306 309 313 314 308 308 308 309 308 312 317 319 321 329 338 334 336 340 345 354 353 354 352 351 350 349 348 348 347 346 343 342 344 344 342 342 341 340 340 341 340 339 338 338
323 316 305 301 303 308 311 314 309 305 307 306 307 308 309 317 322 322 326 334 330 335 337 346 354 354 354 353 351 351 351 351 347 345 345 342 343 344 341 340 340 340 340 340 341 340 340 341 340
313 309 298 297 301 308 308 312 313 309 309 307 308 308 308 316 319 319 318 323 334 338 342 347 352 353 353 354 353 352 350 347 344 343 341 341 340 340 339 339 339 339 339 339 339 340 341 341 340
309 305 300 302 304 305 309 313 310 311 309 306 311 306 310 313 316 318 317 324 330 336 339 341 345 349 353 351 349 348 345 343 341 337 335 334 334 335 335 336 336 336 337 337 338 339 341 341 340
312 306 300 302 302 303 310 309 309 311 311 313 313 307 306 313 316 316 316 318 324 328 330 331 330 333 336 339 346 345 343 339 335 335 334 334 334 334 333 333 333 335 335 336 337 338 340 339 340
315 302 300 301 303 306 312 305 311 313 310 311 311 311 316 317 315 314 312 312 313 319 318 322 323 329 329 330 334 341 338 336 336 335 335 332 322 322 325 329 333 335 337 337 336 337 338 338 338
309 302 306 311 309 308 311 308 308 307 308 309 311 316 317 316 314 312 311 311 310 311 312 316 319 321 321 327 325 328 328 327 328 326 323 321 320 320 326 329 332 334 335 336 337 337 338 337 327
310 306 311 312 313 313 311 311 313 307 304 307 308 313 314 313 312 312 311 311 309 312 316 317 318 320 321 322 322 322 321 322 323 323 322 321 322 320 320 320 322 322 329 327 331 331 331 329 326
306 312 313 313 315 313 310 313 311 309 309 312 313 315 314 312 311 311 310 310 311 313 315 316 320 321 321 323 322 322 322 321 321 322 323 320 319 319 319 320 322 322 323 324 325 325 325 326 325
309 311 314 315 314 313 314 311 310 310 313 314 313 314 313 313 312 311 310 312 311 314 319 321 322 323 324 323 323 322 323 323 322 321 322 322 320 319 323 324 322 320 321 322 322 323 324 324 325
310 311 312 313 312 313 310 311 310 312 314 312 310 311 311 311 311 309 311 311 312 317 320 320 322 323 324 322 322 323 322 324 324 323 323 324 322 321 323 320 320 319 319 320 322 322 322 322 323
305 304 308 310 309 307 309 306 307 311 312 310 308 309 310 311 311 312 314 313 314 317 320 319 322 323 323 322 321 321 323 325 324 324 324 324 323 323 324 319 319 319 319 320 321 321 322 321 322
299 298 294 303 306 308 306 300 308 311 309 309 310 308 309 308 312 312 314 314 313 318 318 320 325 321 320 320 322 323 324 324 323 324 324 325 324 323 320 319 319 321 319 319 319 319 319 320 320
295 292 294 298 305 306 304 302 308 312 311 309 308 309 310 309 310 312 315 315 315 318 318 318 319 318 320 321 321 322 324 324 325 325 324 323 323 322 319 319 320 321 318 318 318 318 320 319 319
291 292 295 297 302 304 302 302 307 310 309 309 308 309 310 309 310 314 316 315 316 317 318 318 318 320 321 319 320 322 321 324 326 326 324 324 323 323 320 320 321 320 317 317 318 317 322 320 319
298 296 295 300 304 302 301 303 306 309 307 305 306 307 308 309 313 316 317 316 317 318 317 317 318 318 319 317 320 319 320 321 323 325 326 326 322 322 318 320 320 320 318 317 318 318 319 318 318
296 295 296 300 303 300 300 301 306 307 307 307 307 307 307 309 313 315 315 315 316 317 318 318 318 318 318 319 322 322 321 323 323 324 327 326 324 325 321 320 320 320 318 317 318 318 316 317 318
296 295 297 297 301 302 299 298 302 307 307 308 308 308 310 311 311 314 314 313 314 316 318 319 318 319 319 322 322 321 321 322 323 322 324 325 327 326 323 323 320 319 319 318 317 318 318 315 317
294 301 300 300 298 291 300 289 296 301 303 305 306 305 308 310 313 314 313 312 312 314 318 319 319 318 321 321 319 318 318 317 320 321 324 322 326 325 325 323 321 320 320 318 319 320 318 319 317
297 302 300 300 297 292 296 290 295 299 300 303 305 307 308 310 312 313 313 314 314 317 317 319 317 322 322 321 320 320 317 321 321 320 319 322 323 325 325 322 321 319 320 320 320 319 319 320 320
302 300 299 297 295 288 295 293 295 296 301 303 303 308 309 309 311 313 314 314 314 314 317 317 317 319 321 322 321 320 316 318 318 318 318 319 323 322 323 323 320 320 320 321 317 319 319 318 323
299 293 286 283 286 287 296 293 296 300 303 305 304 307 309 311 312 313 313 312 313 315 315 317 317 318 319 319 321 318 317 319 317 316 317 318 318 318 319 320 321 320 321 321 320 320 322 319 324
294 294 288 282 283 287 296 290 296 303 306 306 310 310 311 310 313 313 313 312 314 314 315 318 315 315 317 319 320 319 319 320 319 319 320 319 319 319 320 321 322 322 323 323 322 321 322 322 322
293 290 297 290 291 287 291 296 302 303 305 308 308 310 309 310 312 313 312 312 311 314 315 316 316 314 318 319 321 320 320 321 321 323 321 320 320 323 322 322 321 323 324 323 322 324 324 324 323
296 299 291 288 285 282 289 291 293 298 302 307 307 307 308 310 311 313 312 311 311 314 313 314 316 315 317 318 318 322 322 323 322 322 319 320 320 322 323 323 322 322 323 324 325 325 324 325 325
293 293 293 293 291 286 284 289 298 300 303 306 307 308 309 310 311 312 311 312 311 312 310 315 315 316 315 318 318 324 322 324 323 320 320 321 321 322 323 324 324 324 324 324 324 321 323 324 324
297 293 295 292 288 290 289 289 302 302 308 309 307 310 310 311 312 312 311 311 310 310 312 315 314 315 315 316 319 321 323 323 323 321 320 322 321 323 324 325 325 325 324 323 324 324 323 323 322
Wind_Speed
5 5 1 3 3 3 4 7 5 5 1 4 3 7 8 2 4 4 2 14 13 15 14 17 21 21 21 19 17 16 14 14 12 11 11 11 11 11 10 9 8 7 7 8 10 10 10 10 8
5 4 2 1 2 1 6 6 3 5 5 5 8 6 4 1 1 7 7 8 17 14 13 15 22 22 20 17 15 15 14 13 13 13 12 12 12 13 13 12 10 9 9 10 10 11 11 11 10
6 3 2 4 3 5 5 7 8 7 7 6 3 2 7 7 2 11 6 12 13 14 14 14 20 18 16 15 13 12 13 13 14 14 13 13 13 14 14 14 13 13 13 13 12 11 12 12 12
4 3 3 2 9 9 7 16 6 5 4 2 4 7 3 6 13 8 13 15 14 11 13 13 18 16 14 14 14 13 14 13 13 13 13 13 14 13 14 15 15 15 15 15 15 13 13 14 13
2 2 2 4 8 7 10 10 7 2 4 2 3 3 1 2 7 12 14 12 12 9 9 11 18 16 15 16 16 15 14 13 13 14 14 14 14 14 14 15 15 16 17 17 17 15 15 13 11
2 2 1 5 6 5 5 7 2 3 5 5 6 9 7 5 11 9 9 10 11 13 9 11 17 18 18 17 16 14 12 11 11 10 8 9 10 12 14 15 16 17 18 18 18 17 16 14 12
5 3 5 5 13 9 1 8 5 8 7 6 12 7 2 6 10 10 9 11 9 11 11 9 11 15 18 15 13 12 13 12 11 9 8 10 11 13 15 17 18 20 20 20 19 18 16 15 14
5 5 4 6 5 13 6 8 7 4 8 3 8 8 5 9 9 8 8 10 10 10 11 10 6 5 6 6 13 14 13 12 12 11 10 9 11 12 12 14 15 17 19 20 19 19 17 18 14
4 2 9 7 7 10 15 4 8 4 1 4 5 9 9 14 10 8 5 4 5 5 4 6 7 6 6 6 6 10 13 13 11 10 10 7 2 4 7 9 14 14 17 19 19 19 17 18 15
6 6 14 14 8 12 17 5 8 5 6 5 1 4 8 16 14 14 8 9 6 6 5 7 7 7 6 3 5 5 5 3 4 4 5 3 4 5 6 9 12 14 14 14 18 19 17 15 3
9 16 21 19 16 16 18 18 12 7 6 8 7 9 11 8 8 11 9 9 9 7 6 7 7 7 7 5 4 1 2 2 3 6 6 5 3 3 3 3 3 4 7 3 5 6 5 6 4
7 14 20 24 21 17 19 19 18 7 11 6 10 17 10 12 14 12 11 9 11 9 10 8 7 7 5 4 3 3 3 3 3 5 6 4 3 4 4 3 4 4 3 4 3 3 4 5 6
12 24 21 20 18 21 20 19 21 13 13 4 10 13 18 17 15 11 9 10 9 9 9 10 9 7 6 5 2 3 4 4 5 4 5 4 4 4 3 4 3 4 3 3 4 4 4 5 5
11 14 19 17 19 22 20 22 10 12 10 10 10 17 15 16 18 7 10 12 10 12 11 10 9 8 7 5 5 5 3 5 4 4 5 6 5 5 4 4 4 4 3 3 4 4 4 4 3
12 18 20 18 15 21 14 21 15 12 10 9 12 14 14 18 11 18 18 18 15 11 11 9 9 8 8 6 5 4 4 4 4 4 5 6 5 6 5 4 4 4 3 4 4 4 3 3 3
7 6 9 10 12 19 8 25 16 12 9 12 12 10 12 11 18 12 16 15 10 11 10 8 7 8 6 5 4 3 4 4 4 4 4 5 5 6 5 4 4 4 3 4 3 3 3 3 4
6 14 16 16 10 13 8 20 15 14 16 19 12 10 11 10 7 11 15 15 12 11 10 8 8 8 7 5 3 3 5 4 4 4 4 5 5 5 4 4 4 4 3 4 3 2 3 2 2
8 8 6 19 16 9 12 15 18 18 14 19 10 11 10 8 14 11 9 10 10 9 9 9 6 7 5 2 2 1 2 4 4 4 4 5 4 5 4 4 5 3 3 3 3 3 2 2 3
7 8 10 22 22 6 9 15 24 19 2 9 11 10 11 6 8 11 11 10 9 8 9 8 7 5 3 1 1 1 3 3 4 4 5 5 5 5 5 4 4 4 4 5 5 3 4 3 3
13 13 17 23 20 5 14 18 24 12 7 11 15 10 5 7 11 14 13 9 8 9 8 8 7 5 3 2 2 2 2 4 4 2 4 4 5 6 5 5 4 4 4 5 5 4 3 2 4
17 19 18 20 19 9 9 14 14 11 4 5 7 6 11 19 17 16 14 10 9 9 9 8 7 7 4 3 1 1 2 3 2 1 3 2 2 5 5 5 4 4 4 4 5 5 6 4 2
19 19 20 17 11 8 7 7 6 8 6 4 8 5 10 15 14 15 12 9 10 8 7 8 8 6 4 4 2 2 1 2 1 2 1 0 1 3 4 4 4 4 3 5 5 5 4 5 4
21 14 15 17 13 5 22 2 9 5 6 8 9 7 10 17 18 17 15 13 7 8 8 7 8 6 5 4 3 2 1 2 1 1 1 1 1 1 3 4 3 4 3 4 6 5 6 3 4
23 10 10 9 9 6 16 5 17 5 8 5 1 5 8 10 10 9 11 10 8 7 7 7 8 5 4 4 3 4 2 3 3 2 1 2 0 0 3 4 4 3 4 5 4 4 5 5 6
13 7 4 4 6 11 10 7 14 6 9 8 7 9 10 11 13 15 13 9 8 9 8 7 7 5 4 6 4 4 3 4 4 1 2 3 1 1 3 3 3 2 4 5 5 5 5 5 5
20 14 8 7 6 4 7 7 13 9 6 5 8 13 12 12 12 14 13 10 9 10 9 8 8 5 5 6 5 3 3 3 2 0 1 1 0 3 4 4 3 3 4 5 4 3 3 4 3
9 20 14 3 3 2 5 7 9 4 7 11 12 13 13 12 13 14 11 9 9 9 9 9 8 5 6 7 5 3 2 3 2 0 2 2 2 2 4 4 4 3 4 5 6 5 5 6 7
27 6 7 1 11 6 4 3 6 2 6 8 9 10 9 9 11 12 11 9 8 9 7 7 8 8 7 6 5 4 3 1 1 2 3 3 1 1 4 5 5 5 5 6 8 7 7 10 6
9 15 6 6 8 9 3 9 8 12 13 15 13 13 14 14 14 13 10 9 9 8 7 7 8 8 6 5 4 4 3 4 4 4 3 3 2 1 5 5 6 6 7 6 8 7 8 11 9
13 10 15 10 5 3 7 9 5 9 17 18 14 14 12 13 13 11 10 9 9 8 7 8 7 7 7 6 6 6 5 5 5 4 4 4 4 3 5 5 6 6 7 7 9 8 9 11 9
Wind_Direction
140 133 73 49 30 72 243 253 240 259 61 228 192 133 157 123 173 219 237 180 148 154 167 174 182 182 184 187 186 189 191 192 197 207 216 225 233 244 241 231 230 236 241 249 259 262 260 266 271
150 139 31 28 95 27 267 254 292 245 237 199 114 115 80 216 94 128 125 183 155 155 166 180 188 188 187 188 189 192 194 197 204 216 223 230 235 239 247 248 246 247 247 246 247 259 260 257 257
172 216 80 154 194 198 218 247 232 290 217 222 95 84 147 172 113 151 160 162 139 164 174 185 186 186 186 187 191 196 202 207 215 225 225 231 239 243 245 248 251 251 251 255 255 248 257 254 255
173 39 310 178 238 262 236 268 275 267 327 17 137 83 43 258 160 166 151 157 158 162 173 180 180 182 182 187 193 201 213 220 226 234 231 237 247 250 250 247 247 251 255 256 260 253 246 250 250
30 66 261 255 255 263 279 277 243 293 305 21 116 155 87 274 140 143 153 156 154 162 167 169 174 176 182 192 197 204 218 220 226 234 241 248 252 253 254 257 258 255 253 254 249 251 240 241 242
32 101 307 256 253 257 303 244 261 249 276 142 89 138 190 155 140 177 133 142 151 153 153 163 171 179 187 193 196 199 203 193 196 210 230 251 263 265 260 257 259 259 258 253 252 247 241 234 227
139 92 236 267 286 300 232 304 276 245 233 219 155 139 260 192 183 168 131 132 143 147 152 168 176 185 190 188 188 184 194 197 203 214 225 240 255 262 264 263 261 259 259 257 252 255 245 233 224
157 129 264 237 269 285 277 339 301 320 261 112 161 168 189 216 180 121 132 142 157 162 169 180 165 156 151 169 182 196 200 204 207 207 216 227 242 247 261 269 266 265 260 256 248 250 243 229 218
137 113 258 241 226 254 287 334 285 274 163 281 217 153 201 152 128 118 128 168 146 175 166 141 148 163 151 186 201 205 211 216 214 214 225 227 237 255 266 269 267 270 259 257 251 248 237 224 221
164 182 239 236 255 271 283 263 288 310 314 277 23 22 122 138 155 161 170 193 189 164 148 139 134 136 159 157 208 199 224 243 207 199 212 217 226 238 248 268 278 279 279 262 250 243 224 220 186
199 224 242 269 260 264 271 287 280 272 298 263 199 177 155 145 163 172 191 198 189 160 137 152 150 162 152 154 137 164 235 228 179 209 218 212 212 245 265 279 288 279 271 270 269 223 205 202 170
265 240 244 252 260 267 266 275 274 242 254 249 191 178 157 165 180 187 195 167 152 159 152 155 154 155 152 135 152 178 153 180 200 225 231 203 218 227 240 243 260 268 257 250 219 194 188 191 189
237 242 248 256 266 266 270 263 256 258 264 245 173 175 180 183 188 199 172 161 151 146 154 164 166 152 165 135 184 205 212 214 222 230 218 205 213 226 225 243 241 244 255 222 214 199 187 206 203
246 248 250 261 266 270 267 272 262 254 253 279 177 195 191 186 194 161 164 164 162 157 164 161 162 166 147 175 203 218 224 245 248 238 227 222 214 215 210 225 234 250 222 224 200 190 191 212 197
264 262 265 261 260 264 283 278 259 255 258 228 204 198 199 201 179 186 174 169 163 164 158 166 161 154 157 188 221 236 238 237 246 246 241 238 211 206 204 220 236 242 234 226 208 197 195 213 210
300 291 266 248 260 266 212 269 278 259 246 237 220 224 203 198 199 186 168 163 159 148 158 164 147 155 159 196 228 241 231 235 241 240 241 245 219 210 201 215 236 242 220 202 185 168 186 211 212
240 259 264 275 248 268 233 271 272 281 257 242 222 220 226 211 173 175 175 158 151 152 147 135 135 144 158 190 233 261 247 235 238 226 229 231 225 224 214 220 234 231 210 200 171 173 168 160 226
205 240 241 257 250 258 264 265 266 260 245 225 210 231 226 186 193 165 132 139 137 141 130 132 148 138 152 175 334 324 274 262 231 220 220 218 218 220 209 235 230 197 183 179 159 173 137 169 200
246 233 248 260 265 279 258 265 265 266 276 251 224 233 230 172 130 134 142 143 133 128 130 144 141 157 133 96 3 306 243 264 251 221 232 229 212 223 209 226 219 184 179 181 167 144 165 214 167
230 244 248 273 268 261 276 284 272 264 232 215 227 237 172 122 144 145 152 152 137 143 147 146 163 159 151 139 207 204 230 260 247 228 254 238 212 207 201 214 219 187 160 165 164 151 116 145 168
224 227 244 248 280 267 269 278 268 285 251 188 245 232 153 167 158 159 161 153 137 145 160 159 168 154 144 114 95 9 354 305 349 279 255 254 226 181 188 210 208 174 170 176 170 163 156 142 118
236 223 234 252 260 256 133 272 282 249 281 276 292 194 172 168 163 155 151 150 153 165 160 149 156 151 136 136 114 126 228 286 272 268 271 102 61 192 174 188 177 157 162 179 178 176 151 131 140
239 221 239 247 247 260 280 271 264 282 280 272 279 184 173 168 162 157 154 154 158 152 151 153 145 138 156 156 125 106 360 281 318 37 68 311 327 158 176 150 175 151 158 171 163 156 144 137 139
233 243 239 264 238 234 251 188 274 208 223 266 116 184 146 144 135 128 140 149 150 143 141 147 145 167 159 141 157 108 98 73 68 5 350 300 346 115 167 133 149 157 155 152 155 130 130 139 133
206 176 247 267 210 232 225 196 236 226 225 218 186 162 156 147 140 147 152 153 148 151 150 151 150 182 164 143 172 123 140 100 96 1 327 335 105 150 162 131 137 155 135 161 159 146 153 143 141
220 204 193 185 216 225 208 226 254 226 270 193 138 151 145 141 151 153 159 160 158 156 158 153 165 170 160 147 169 158 139 121 123 121 23 15 150 155 150 149 140 161 142 136 128 124 131 132 110
207 213 210 201 302 121 215 279 326 347 104 125 137 143 154 152 155 155 163 159 155 157 170 159 169 153 173 162 166 163 171 143 184 124 21 66 115 154 150 157 159 156 129 115 114 113 108 98 108
221 149 163 347 218 226 274 233 224 138 147 146 145 162 148 144 147 161 164 160 160 167 162 168 163 166 181 173 158 180 181 141 118 54 57 107 118 144 148 144 147 135 110 110 114 110 107 109 104
183 206 207 171 166 191 197 259 213 198 181 166 179 168 161 162 162 164 165 167 160 158 154 162 153 158 164 179 157 167 118 96 93 82 59 61 75 165 119 132 125 125 122 115 100 95 109 112 114
210 187 194 212 226 182 157 260 288 181 164 167 171 172 168 159 161 161 164 158 152 163 159 156 154 158 166 154 129 143 126 114 91 71 72 62 88 89 103 106 104 103 102 108 118 118 120 126 113